Regional Weather Roundup
Issued by NWS

Home | Current Version | Previous Version | Graphics & Text | Print | Product List | Glossary On
Versions: 1 2 3 4 5 6 7 8 9 10 11 12 13 14 15 16 17 18 19 20 21 22 23 24 25 26 27 28 29 30 31 32 33 34 35 36 37 38 39 40 41 42 43 44 45 46 47 48 49 50
000
ASUS45 KBOU 271307
RWRCO

WEATHER ROUNDUP FOR COLORADO
NATIONAL WEATHER SERVICE DENVER/BOULDER CO
600 AM MST THU NOV 27 2014

NOTE: "FAIR" INDICATES FEW OR NO CLOUDS BELOW 12000 FEET WITH NO
SIGNIFICANT WEATHER AND/OR OBSTRUCTIONS TO VISIBILITY.

COZ001>005-013-030-031-271400-
...NORTHWEST COLORADO...

CITY           SKY/WX    TMP DP  RH WIND       PRES   REMARKS
CRAIG          CLOUDY    24  21  88 W3        30.40F
HAYDEN         CLOUDY    25  19  80 SE10      30.41S WCI  15
MEEKER         MOCLDY    25  21  85 VRB3      30.44S
MOUNT WERNER   NOT AVBL
STEAMBOAT SPGS CLOUDY    21  20  95 CALM      30.42F
WALDEN         PTCLDY    36  18  48 SW8       30.36S
$$

COZ006>008-011-271400-
...WEST CENTRAL VALLEYS...

CITY           SKY/WX    TMP DP  RH WIND       PRES   REMARKS
GRAND JUNCTION PTCLDY    21  20  96 E3        30.46S
MONTROSE       PTCLDY    25  20  81 S7        30.51R WCI  17
EAGLE          PTCLDY    21  21 100 E5        30.52R WCI  15
RIFLE          PTCLDY    22  19  89 CALM      30.51R
DELTA          PTCLDY    27  23  85 CALM      30.50S
NUCLA          PTCLDY    28  21  74 CALM      30.53R
$$

COZ017>023-064>068-271400-
...SOUTHWEST COLORADO...

CITY           SKY/WX    TMP DP  RH WIND       PRES   REMARKS
DURANGO        MOCLDY    19  15  84 E6        30.47R WCI  11
CORTEZ         CLEAR     19  15  84 E7        30.47S WCI  10
PAGOSA SPRINGS MOCLDY    22  20  91 CALM      30.48S
TELLURIDE      CLEAR     26  18  70 SE7       30.55S WCI  18
WOLF CREEK PAS CLEAR     32  -8  18 MISG      30.59S
$$

COZ009-010-012-014-032>034-037-058>063-271400-
...CENTRAL COLORADO...

CITY           SKY/WX    TMP DP  RH WIND       PRES   REMARKS
ASPEN          PTCLDY    18  14  84 S5        30.48S WCI  11
BUENA VISTA    PTCLDY    24  17  75 W3        30.44S
COPPER MTN     PTCLDY    25  14  63 MISG      30.52R
BERTHOUD PASS  NOT AVBL
COTTONWOOD PAS PTCLDY    36   9  32 N6        30.45S
GUNNISON       CLEAR     12   7  79 CALM      30.57F
KREMMLING      MOCLDY    25  19  80 E3        30.45R
LEADVILLE      PTCLDY    26   8  46 N9        30.47S WCI  17
MONARCH PASS     N/A     19  18  93 MISG      30.59S
SALIDA         PTCLDY    34  19  55 N9        30.50R WCI  26
SUNLIGHT       PTCLDY    25  23  93 CALM      30.54R
WILKERSON PASS PTCLDY    27   7  43 W8        30.48R WCI  18
$$

COZ069>075-271400-
...SAN LUIS VALLEY/SANGRE DE CRISTO MOUNTAINS...

CITY           SKY/WX    TMP DP  RH WIND       PRES   REMARKS
ALAMOSA        PTCLDY     8   4  83 SE3       30.50R
LA VETA PASS   PTCLDY    30  18  59 S17G26    30.48R WCI  18
SAGUACHE       CLEAR     27  19  74 NW18      30.50S WCI  13
$$

COZ035-036-038>040-271400-
...NORTHERN COLORADO FRONT RANGE...

CITY           SKY/WX    TMP DP  RH WIND       PRES   REMARKS
DENVER INTL AP MOCLDY    44  21  40 S14       30.21S
DMNS CITY PARK   N/A     36  23  59 SE5       30.21S
AURORA         MOCLDY    40  20  45 S12       30.23S
FRONT RANGE AP MOCLDY    45  21  39 SW12      30.22S
ERIE MUNI ARPT CLOUDY    30  25  82 CALM      30.19F
BOULDER MUN AP CLOUDY    48  19  32 CALM      30.18S
CENTENNIAL     CLOUDY    47  15  27 SW14      30.23S
BROOMFIELD     PTCLDY    48  16  27 SW9       30.21F
FORT COLLINS   PTCLDY    18  16  93 NW5       30.21S WCI  11
LONGMONT       PTCLDY    26  23  91 CALM      30.21S
$$

COZ041-046-047-076>085-087-088-271400-
...PIKES PEAK/PALMER DIVIDE AND SOUTHERN FOOTHILLS...

CITY           SKY/WX    TMP DP  RH WIND       PRES   REMARKS
COLO. SPRINGS  MOCLDY    35  19  52 N7        30.27F WCI  29
A. F. ACADEMY  MOCLDY    31  19  61 NE7       30.28S WCI  24
ELLICOTT       NOT AVBL
FALCON         NOT AVBL
FORT CARSON    MOCLDY    29  20  68 VRB3      30.25F
LIMON          PTCLDY    17  15  92 W3        30.26S
MONUMENT HILL  CLOUDY    41  12  30 SW9       30.27S
TRINIDAD       CLEAR     32  20  61 W10       30.31S WCI  24
$$

COZ042>045-048>051-090-091-271400-
...NORTHEAST COLORADO...

CITY           SKY/WX    TMP DP  RH WIND       PRES   REMARKS
GREELEY ARPT   PTCLDY    18   9  68 N3        30.22S
AKRON          PTCLDY    31  24  75 SW14      30.20F WCI  21
BURLINGTON     CLEAR     24  18  77 SW14      30.26S WCI  12
WRAY           CLEAR     19  18  94 SW8       30.24F WCI   9
STERLING       PTCLDY    25  23  93 SW7       30.21S WCI  17
HOLYOKE        CLEAR     21  19  93 W8        30.21F WCI  12
FORT MORGAN    PTCLDY    20  18  93 W9        30.21S WCI   9
$$

COZ086-089-092>099-271400-
...SOUTHEAST COLORADO...

CITY           SKY/WX    TMP DP  RH WIND       PRES   REMARKS
PUEBLO         MOCLDY    22  17  81 CALM      30.28F
LA JUNTA       MOCLDY    24  19  81 SW7       30.30F WCI  16
LAMAR          MOCLDY    22  19  89 W5        30.30F WCI  16
SPRINGFIELD      N/A     22  19  89 SW5       30.30F WCI  16
$$


USA.gov is the U.S. government's official web portal to all federal, state and local government web resources and services.